Fulton, NY

1:22 AM EDT on October 23, 2019 (GMT -0400)
Oswego County

Weather History for KFZY - May, 2019

Change the Weather History Date:

Wednesday, May 22, 2019

  Actual Average (KSYR) Record (KSYR)
Temperature  
Mean Temperature 54 °F -  
Max Temperature 70 °F 70 °F 92 °F (1911)
Min Temperature 39 °F 47 °F 35 °F (1967)
Degree Days  
Heating Degree Days 11    
Growing Degree Days 4 (Base 50)    
Moisture  
Dew Point 39 °F    
Average Humidity 55    
Maximum Humidity 86    
Minimum Humidity 31    
Precipitation  
Precipitation 0.01 in - - ()
Sea Level Pressure  
Sea Level Pressure 30.21 in    
Wind  
Wind Speed 3 mph (East)    
Max Wind Speed 7 mph    
Max Gust Speed -    
Visibility 10 miles    
Events Rain    
Averages and records for this station are not official NWS values.
T = Trace of Precipitation, MM = Missing Value Source: NWS Daily Summary

Daily Weather History Graph

Daily Weather History Graph

Search for Another Location

Airport or City:

Astronomy

May. 22, 2019 Rise Set
Actual Time 5:34 AM EDT 8:30 PM EDT
Civil Twilight 5:01 AM EDT 9:03 PM EDT
Nautical Twilight 4:18 AM EDT 9:46 PM EDT
Astronomical Twilight 3:28 AM EDT 10:37 PM EDT
Moon No Moon Rise 8:39 AM EDT (5/22)
Length of Visible Light 16h 02m
Length of Day
14h 55m
Waning Gibbous, 85% of the Moon is Illuminated
May 22
Waning Gibbous
May 26
Last Quarter
Jun 3
New
Jun 10
First Quarter
Jun 17
Full

Hourly Weather History & Observations

Time (EDT) Temp. Windchill Dew Point Humidity Pressure Visibility Wind Dir Wind Speed Gust Speed Precip Events Conditions
1:54 AM 43.0 °F 41.3 °F 36.0 °F 76% 30.18 in 10.0 mi West 3.5 mph - N/A   Clear
2:54 AM 43.0 °F - 36.0 °F 76% 30.19 in 10.0 mi Calm Calm - N/A   Clear
3:54 AM 41.0 °F - 36.0 °F 82% 30.21 in 10.0 mi Calm Calm - N/A   Unknown
4:54 AM 39.0 °F - 35.1 °F 86% 30.21 in 10.0 mi Calm Calm - N/A   Clear
5:54 AM 39.0 °F - 35.1 °F 86% 30.24 in 10.0 mi Calm Calm - N/A   Clear
6:54 AM 43.0 °F - 39.0 °F 86% 30.26 in 10.0 mi Calm Calm - N/A   Clear
7:54 AM 51.1 °F - 41.0 °F 68% 30.27 in 10.0 mi ENE 3.5 mph - N/A   Clear
8:54 AM 57.9 °F - 37.9 °F 47% 30.29 in 10.0 mi ENE 5.8 mph - N/A   Clear
9:54 AM 63.0 °F - 37.0 °F 38% 30.29 in 10.0 mi NNE 5.8 mph - N/A   Clear
10:54 AM 63.0 °F - 36.0 °F 37% 30.29 in 10.0 mi ENE 4.6 mph - N/A   Clear
11:54 AM 64.0 °F - 37.9 °F 38% 30.27 in 10.0 mi Variable 3.5 mph - N/A   Clear
12:54 PM 66.0 °F - 39.9 °F 38% 30.25 in 10.0 mi Variable 3.5 mph - N/A   Clear
1:54 PM 66.0 °F - 37.9 °F 36% 30.26 in 10.0 mi Calm Calm - N/A   Clear
2:54 PM 69.1 °F - 39.9 °F 35% 30.23 in 10.0 mi South 6.9 mph - N/A   Clear
3:54 PM 68.0 °F - 36.0 °F 31% 30.22 in 10.0 mi SW 3.5 mph - N/A   Clear
4:54 PM 63.0 °F - 39.0 °F 41% 30.21 in 10.0 mi NE 5.8 mph - N/A   Overcast
5:54 PM 63.0 °F - 39.9 °F 43% 30.18 in 10.0 mi Variable 3.5 mph - 0.00 in   Scattered Clouds
6:54 PM 62.1 °F - 41.0 °F 46% 30.15 in 10.0 mi ENE 3.5 mph - N/A   Mostly Cloudy
7:54 PM 61.0 °F - 45.0 °F 56% 30.14 in 10.0 mi Calm Calm - N/A   Overcast
8:54 PM 63.0 °F - 41.0 °F 45% 30.11 in 10.0 mi Variable 3.5 mph - N/A   Mostly Cloudy
9:54 PM 64.0 °F - 39.9 °F 41% 30.09 in 10.0 mi SE 6.9 mph - 0.00 in   Overcast
10:54 PM 61.0 °F - 42.1 °F 50% 30.13 in 10.0 mi ESE 4.6 mph - 0.00 in   Overcast
11:54 PM 57.9 °F - 48.9 °F 72% 30.12 in 10.0 mi Variable 3.5 mph - 0.01 in Rain Light Rain